User: anonymous   Login
Location: Coffee Creek Observatory
(38.8077°N, 94.7179°W)
Time: 01:52:07
(UTC-05:00)
Language:

Lacrosse 4 Rocket - Orbit

View from above orbital plane
View from above orbital plane
View from above satellite
View from above satellite

Ground track
Ground track

The orbit data is extracted from the following two-line orbital elements,

1 26474U 00047B   17174.67948579 +.00000071 +00000-0 +17264-4 0  9991
2 26474 067.9926 194.4163 0060074 312.7511 046.8584 14.95496513916355
Epoch (UTC): 23 June 2017 16:18:27
Eccentricity: 0.0060074
inclination: 67.9926°
perigee height: 539 km
apogee height: 622 km
right ascension of ascending node: 194.4163°
argument of perigee: 312.7511°
revolutions per day: 14.95496513
mean anomaly at epoch: 46.8584°
orbit number at epoch: 91635

The dashed part of the orbit path shows where the satellite is in the earth's shadow,  

DLR